Flag for United Kingdom Weather past 2 weeks in Canvey Island, England, United Kingdom

55 °F

Partly sunny.

Feels Like: 50 °F
Forecast: N/A
Wind: 25 mph from Southwest

Location: Southend Airport-On-Sea

Current Time: Nov 30, 2015 at 3:41:40 PM

Latest Report: Nov 30, 2015 at 3:20 PM

Visibility: N/A

Pressure: 29.86 "Hg

Humidity: 72%

Dew point: 46 °F

Location of Canvey IslandLocation

Historic Weather in Canvey Island — Graph


Canvey Island temperature yesterday

Maximum temperature yesterday: 57 °F (at 4:50 PM)
Minimum temperature yesterday: 50 °F (at 1:50 AM)
Average temperature yesterday: 53 °F

Past Weeks' High & Low Weather Summary

High61 °F (Nov 15, 2:20 PM)94% (Nov 16, 11:50 PM)30.27 "Hg (Nov 16, 11:50 PM)
Low27 °F (Nov 22, 5:50 AM)55% (Nov 17, 8:20 PM)29.50 "Hg (Nov 17, 3:20 PM)
Average48 °F78%29.86 "Hg
* Reported Nov 15 2:20 PM — Nov 30 2:20 PM, Canvey Island, Weather by CustomWeather, © 2015

Note: Actual official high and low records may vary slightly from our data, if they occured in-between our weather recording intervals... More about our weather records


Canvey Island weather history for previous 24 hours

Time TempWeatherWind HumidityBarometerVisibility
2:20 PM
Mon, Nov 30
54 °FPartly sunny.24 mph77%29.86 "HgN/A
1:50 PM55 °FPartly sunny.25 mph72%29.86 "HgN/A
1:20 PM55 °FPartly sunny.25 mph67%29.89 "HgN/A
12:50 PM54 °FPartly sunny.24 mph77%29.89 "HgN/A
12:20 PM54 °FPartly sunny.26 mph77%29.89 "HgN/A
11:50 AM54 °FPartly sunny.22 mph72%29.92 "HgN/A
11:20 AM54 °FPartly sunny.22 mph77%29.92 "HgN/A
10:50 AM54 °FPartly sunny.21 mph77%29.95 "HgN/A
10:20 AM54 °FPartly sunny.17 mph77%29.95 "HgN/A
9:50 AM54 °FPartly sunny.17 mph77%29.98 "HgN/A
9:20 AM52 °FPartly sunny.20 mph82%29.98 "HgN/A
8:50 AM52 °FPartly sunny.16 mph82%29.98 "HgN/A
8:20 AM50 °FPartly sunny.14 mph88%29.98 "HgN/A
7:20 AM46 °FDrizzle. Fog.9 mph93%30.01 "Hg2 mi
6:50 AM46 °FLight rain. Partly cloudy.9 mph87%30.01 "Hg5 mi
6:20 AM46 °FLight rain. Partly cloudy.6 mph87%30.04 "HgN/A
5:50 AM46 °FLight rain. Partly cloudy.7 mph87%30.04 "HgN/A
5:20 AM46 °FPassing clouds.7 mph87%30.07 "HgN/A
4:50 AM46 °FPassing clouds.7 mph82%30.07 "HgN/A
3:50 AM48 °FPassing clouds.9 mph62%30.07 "HgN/A
12:50 AM50 °FPassing clouds.18 mph67%30.01 "HgN/A
12:20 AM48 °FPassing clouds.13 mph71%30.01 "HgN/A
11:50 PM
Sun, Nov 29
50 °FPassing clouds.15 mph67%29.98 "HgN/A
10:50 PM50 °FPassing clouds.20 mph62%29.95 "HgN/A
10:20 PM50 °FClear.20 mph67%29.95 "Hg10 mi
9:50 PM50 °FClear.18 mph67%29.92 "Hg10 mi
9:20 PM50 °FPassing clouds.18 mph76%29.89 "HgN/A
8:50 PM50 °FLight rain. Passing clouds.26 mph76%29.86 "HgN/A
8:20 PM54 °FSprinkles. Passing clouds.23 mph77%29.86 "HgN/A
7:50 PM54 °FSprinkles. Partly cloudy.23 mph82%29.83 "HgN/A
7:20 PM54 °FSprinkles. Passing clouds.26 mph82%29.80 "HgN/A
6:50 PM54 °FSprinkles. Passing clouds.24 mph82%29.80 "HgN/A
6:20 PM54 °FRain showers. Passing clouds.28 mph82%29.77 "Hg5 mi
5:50 PM55 °FPassing clouds.28 mph72%29.74 "HgN/A
5:20 PM55 °FPassing clouds.29 mph67%29.74 "HgN/A
4:50 PM57 °FPassing clouds.29 mph63%29.71 "HgN/A
4:20 PM55 °FPassing clouds.28 mph67%29.71 "HgN/A
3:50 PM55 °FPartly sunny.29 mph67%29.71 "HgN/A
3:20 PM55 °FPartly sunny.28 mph67%29.71 "HgN/A
Weather by CustomWeather, © 2015

See weather overviewHow to use our weather pages